Find Starlink 4545

NORAD ID: 53421 Int'l Des: 2022-097 Owner: SPXS Country: US Constellation: starlink operational
LEOCIRCULAR

Live Position

Loading 3D Globe...

About Starlink 4545

Description loading...

Upcoming Passes

Passes for default location (London). Set your location on the main map for personalized predictions.

Altitude History

Loading altitude history...

Two-Line Element Set

1 53421U 22097AK 26109.88152752 -.00001078 00000-0 -49661-4 0 9999
2 53421 53.2164 289.2013 0001360 96.2514 263.8633 15.08822903204847
Epoch: Apr 19, 2026 • Age: 6 hours

Current Status

Altitude 553.8 km
Velocity 7.58 km/s
Sub-Earth Point -40.23°S, 105.47°W
Launch Date Aug 10, 2022
Age 3.6 years
Type internet

Technical Details

Classification Payload
Mass 297.00 kg
Dry Mass 275.00 kg
Total Mass 297.00 kg
Length 0.20 m
Diameter 2.80 m
Span 9.00 m
Shape Box + pan
Manufacturer SPXS
Bus Type Starlink
Phase Status In Orbit
Owner/State SPXS/US

Most Searched